DWI1734 MDSD-SKRG

Flight info

Callsign DWI1734
Flight time N/A
Altitude 38000
Route BEROX4J BEROX DCT AMBAS DCT VUP/N0386F240 W19 ELB DCT UGALU DCT BIVIG BIVIG3C
Aircraft B38M/M-SDE1FGHILORVWXY/HB1

Departure

Time N/A
Airport Las Américas International Airport (MDSD)

Arrival

Time 2026-05-04 23:29
Airport Jose Maria Córdova International Airport (SKRG)
Time Latitude Longitude Altitude Speed Heading
2026-05-04 22:28 11.74117 -72.48824 37851 ft 453 kts 211°
2026-05-04 22:29 11.68694 -72.52023 37849 ft 454 kts 211°
2026-05-04 22:29 11.63220 -72.55251 37848 ft 454 kts 211°
2026-05-04 22:30 11.57738 -72.58482 37847 ft 454 kts 211°
2026-05-04 22:30 11.52287 -72.61693 37840 ft 454 kts 211°
2026-05-04 22:31 11.46796 -72.64926 37844 ft 455 kts 211°
2026-05-04 22:31 11.41317 -72.68150 37842 ft 455 kts 211°
2026-05-04 22:32 11.35855 -72.71364 37842 ft 456 kts 211°
2026-05-04 22:32 11.30345 -72.74604 37848 ft 455 kts 211°
2026-05-04 22:33 11.24855 -72.77830 37850 ft 456 kts 211°
2026-05-04 22:33 11.19355 -72.81062 37859 ft 456 kts 211°
2026-05-04 22:34 11.13869 -72.84283 37864 ft 456 kts 211°
2026-05-04 22:34 11.08365 -72.87514 37873 ft 456 kts 211°
2026-05-04 22:35 11.02857 -72.90746 37873 ft 457 kts 210°
2026-05-04 22:35 10.97386 -72.93954 37882 ft 457 kts 210°
2026-05-04 22:36 10.91880 -72.97182 37884 ft 457 kts 210°
2026-05-04 22:36 10.86354 -73.00420 37890 ft 457 kts 210°
2026-05-04 22:37 10.80835 -73.03652 37897 ft 458 kts 210°
2026-05-04 22:37 10.75297 -73.06894 37906 ft 460 kts 210°
2026-05-04 22:38 10.69770 -73.10129 37896 ft 461 kts 210°
2026-05-04 22:38 10.64211 -73.13381 37888 ft 461 kts 210°
2026-05-04 22:39 10.58641 -73.16638 37872 ft 462 kts 210°
2026-05-04 22:39 10.53063 -73.19899 37858 ft 463 kts 210°
2026-05-04 22:40 10.47470 -73.23166 37858 ft 463 kts 210°
2026-05-04 22:40 10.41774 -73.26123 37864 ft 463 kts 205°
2026-05-04 22:41 10.35950 -73.28912 37857 ft 463 kts 205°
2026-05-04 22:41 10.30131 -73.31735 37861 ft 462 kts 205°
2026-05-04 22:42 10.24323 -73.34556 37862 ft 463 kts 205°
2026-05-04 22:42 10.18506 -73.37380 37862 ft 463 kts 205°
2026-05-04 22:43 10.12735 -73.40181 37859 ft 463 kts 205°
2026-05-04 22:43 10.06920 -73.43002 37847 ft 462 kts 205°
2026-05-04 22:44 10.01113 -73.45818 37840 ft 463 kts 205°
2026-05-04 22:44 9.95304 -73.48634 37835 ft 463 kts 205°
2026-05-04 22:45 9.89494 -73.51450 37831 ft 463 kts 205°
2026-05-04 22:45 9.80800 -73.55660 37829 ft 463 kts 205°
2026-05-04 22:46 9.74945 -73.58496 37825 ft 463 kts 206°
2026-05-04 22:46 9.69301 -73.61583 37829 ft 464 kts 208°
2026-05-04 22:47 9.63579 -73.64699 37827 ft 464 kts 207°
2026-05-04 22:47 9.57907 -73.67780 37825 ft 465 kts 207°
2026-05-04 22:48 9.52209 -73.70874 37825 ft 465 kts 207°
2026-05-04 22:48 9.47473 -73.73445 37825 ft 465 kts 207°
2026-05-04 22:49 9.40809 -73.77061 37832 ft 465 kts 207°
2026-05-04 22:49 9.36070 -73.79631 37828 ft 464 kts 207°
2026-05-04 22:50 9.30379 -73.82717 37829 ft 464 kts 207°
2026-05-04 22:50 9.24683 -73.85804 37831 ft 464 kts 207°
2026-05-04 22:51 9.18986 -73.88891 37827 ft 464 kts 207°
2026-05-04 22:51 9.13326 -73.91956 37824 ft 464 kts 207°
2026-05-04 22:52 9.07621 -73.95046 37830 ft 464 kts 207°
2026-05-04 22:52 9.01981 -73.98233 37826 ft 465 kts 209°
2026-05-04 22:53 8.96350 -74.01483 37828 ft 465 kts 209°
2026-05-04 22:53 8.90724 -74.04722 37830 ft 465 kts 209°
2026-05-04 22:54 8.85126 -74.07943 37831 ft 465 kts 209°
2026-05-04 22:54 8.79494 -74.11183 37832 ft 465 kts 209°
2026-05-04 22:55 8.73861 -74.14421 37834 ft 465 kts 209°
2026-05-04 22:55 8.68227 -74.17660 37838 ft 465 kts 209°
2026-05-04 22:56 8.62642 -74.20869 37840 ft 464 kts 209°
2026-05-04 22:56 8.57022 -74.24097 37847 ft 464 kts 209°
2026-05-04 22:57 8.51553 -74.27237 37851 ft 463 kts 209°
2026-05-04 22:57 8.45950 -74.30454 37858 ft 463 kts 209°
2026-05-04 22:58 8.40336 -74.33674 37862 ft 463 kts 209°
2026-05-04 22:58 8.34722 -74.36895 37868 ft 464 kts 209°
2026-05-04 22:59 8.29144 -74.40094 37868 ft 464 kts 209°
2026-05-04 22:59 8.23540 -74.43306 37873 ft 463 kts 209°
2026-05-04 23:00 8.17927 -74.46522 37871 ft 463 kts 209°
2026-05-04 23:00 8.12323 -74.49732 37877 ft 463 kts 209°
2026-05-04 23:01 8.06719 -74.52941 37880 ft 463 kts 209°
2026-05-04 23:01 8.01108 -74.56153 37867 ft 463 kts 209°
2026-05-04 23:02 7.95493 -74.59367 37872 ft 464 kts 209°
2026-05-04 23:02 7.89877 -74.62580 37874 ft 464 kts 209°
2026-05-04 23:03 7.84285 -74.65778 37868 ft 465 kts 209°
2026-05-04 23:03 7.78635 -74.69009 37863 ft 466 kts 209°
2026-05-04 23:04 7.72990 -74.72235 37866 ft 466 kts 209°
2026-05-04 23:04 7.67449 -74.75556 37863 ft 466 kts 214°
2026-05-04 23:05 7.62070 -74.79245 37864 ft 467 kts 213°
2026-05-04 23:05 7.56666 -74.82885 37865 ft 467 kts 213°
2026-05-04 23:06 7.51259 -74.86517 37866 ft 467 kts 213°
2026-05-04 23:06 7.45872 -74.90133 37873 ft 467 kts 213°
2026-05-04 23:07 7.40461 -74.93765 37879 ft 467 kts 213°
2026-05-04 23:07 7.35051 -74.97394 37757 ft 464 kts 213°
2026-05-04 23:08 7.32355 -74.99203 36875 ft 468 kts 213°
2026-05-04 23:08 7.29629 -75.01032 36165 ft 468 kts 213°
2026-05-04 23:08 7.26931 -75.02841 35628 ft 464 kts 213°
2026-05-04 23:08 7.24244 -75.04643 35066 ft 462 kts 213°
2026-05-04 23:09 7.21572 -75.06434 34515 ft 460 kts 213°
2026-05-04 23:09 7.18917 -75.08213 33980 ft 458 kts 213°
2026-05-04 23:09 7.16273 -75.09986 33392 ft 456 kts 213°
2026-05-04 23:09 7.13667 -75.11732 32838 ft 453 kts 213°
2026-05-04 23:10 7.11052 -75.13484 32324 ft 450 kts 213°
2026-05-04 23:10 7.08452 -75.15226 31818 ft 448 kts 213°
2026-05-04 23:10 7.05865 -75.16960 31292 ft 445 kts 213°
2026-05-04 23:10 7.03187 -75.18490 30726 ft 443 kts 200°
2026-05-04 23:11 7.00218 -75.19217 30197 ft 439 kts 183°
2026-05-04 23:11 6.97169 -75.19177 29701 ft 434 kts 177°
2026-05-04 23:11 6.94164 -75.19063 29192 ft 431 kts 177°
2026-05-04 23:11 6.91179 -75.18937 28707 ft 428 kts 176°
2026-05-04 23:12 6.88216 -75.18797 28225 ft 425 kts 176°
2026-05-04 23:12 6.85263 -75.18651 27759 ft 422 kts 176°
2026-05-04 23:12 6.82340 -75.18505 27288 ft 419 kts 176°
2026-05-04 23:12 6.79428 -75.18359 26829 ft 417 kts 176°
2026-05-04 23:13 6.76534 -75.18213 26378 ft 415 kts 176°
2026-05-04 23:13 6.73656 -75.18068 25936 ft 413 kts 176°
2026-05-04 23:13 6.70798 -75.17924 25499 ft 411 kts 176°
2026-05-04 23:13 6.67947 -75.17781 25057 ft 409 kts 176°
2026-05-04 23:14 6.65147 -75.17640 24638 ft 407 kts 176°
2026-05-04 23:14 6.62323 -75.17498 24212 ft 406 kts 176°
2026-05-04 23:14 6.59508 -75.17356 23787 ft 405 kts 176°
2026-05-04 23:14 6.56692 -75.17215 23322 ft 403 kts 176°
2026-05-04 23:15 6.54850 -75.17122 23011 ft 402 kts 176°
2026-05-04 23:15 6.52066 -75.16981 22583 ft 399 kts 176°
2026-05-04 23:15 6.49301 -75.16843 22172 ft 396 kts 176°
2026-05-04 23:15 6.46554 -75.16704 21770 ft 393 kts 176°
2026-05-04 23:16 6.43872 -75.16570 21371 ft 390 kts 176°
2026-05-04 23:16 6.41174 -75.16435 20978 ft 387 kts 176°
2026-05-04 23:16 6.38496 -75.16690 20540 ft 388 kts 194°
2026-05-04 23:16 6.35906 -75.17422 20200 ft 385 kts 193°
2026-05-04 23:17 6.33325 -75.18112 19847 ft 382 kts 193°
2026-05-04 23:17 6.30766 -75.18804 19472 ft 380 kts 193°
2026-05-04 23:17 6.28215 -75.19497 19097 ft 378 kts 193°
2026-05-04 23:17 6.25678 -75.20188 18722 ft 377 kts 193°
2026-05-04 23:18 6.23149 -75.20877 18349 ft 375 kts 193°
2026-05-04 23:18 6.20656 -75.21556 18030 ft 370 kts 193°
2026-05-04 23:18 6.18186 -75.22229 17515 ft 367 kts 193°
2026-05-04 23:18 6.15751 -75.22892 17088 ft 356 kts 193°
2026-05-04 23:19 6.13399 -75.23532 16715 ft 343 kts 193°
2026-05-04 23:19 6.11132 -75.24149 16372 ft 332 kts 193°
2026-05-04 23:19 6.08969 -75.24738 16041 ft 322 kts 193°
2026-05-04 23:19 6.06804 -75.25327 15700 ft 321 kts 193°
2026-05-04 23:20 6.04650 -75.25914 15363 ft 320 kts 193°
2026-05-04 23:20 6.02503 -75.26498 15022 ft 319 kts 193°
2026-05-04 23:20 6.00359 -75.27082 14697 ft 318 kts 193°
2026-05-04 23:20 5.98254 -75.27655 14554 ft 309 kts 193°
2026-05-04 23:21 5.96199 -75.28214 14362 ft 303 kts 193°
2026-05-04 23:21 5.94181 -75.28763 14182 ft 297 kts 192°
2026-05-04 23:21 5.92212 -75.29299 14019 ft 290 kts 192°
2026-05-04 23:21 5.90298 -75.29855 13823 ft 285 kts 199°
2026-05-04 23:22 5.88670 -75.30984 13464 ft 288 kts 228°
2026-05-04 23:22 5.87753 -75.32756 13205 ft 288 kts 256°
2026-05-04 23:22 5.87612 -75.34715 12974 ft 284 kts 269°
2026-05-04 23:22 5.87603 -75.36684 12740 ft 280 kts 269°
2026-05-04 23:23 5.87591 -75.38618 12518 ft 275 kts 271°
2026-05-04 23:23 5.88049 -75.40465 12132 ft 276 kts 302°
2026-05-04 23:23 5.89398 -75.41776 11796 ft 268 kts 334°
2026-05-04 23:23 5.91139 -75.42279 11479 ft 257 kts 360°
2026-05-04 23:24 5.92906 -75.42221 11138 ft 251 kts
2026-05-04 23:24 5.94620 -75.42176 10794 ft 240 kts
2026-05-04 23:24 5.96213 -75.42180 10531 ft 217 kts
2026-05-04 23:24 5.97661 -75.42189 10262 ft 198 kts
2026-05-04 23:25 5.98946 -75.42198 10040 ft 177 kts
2026-05-04 23:25 6.00150 -75.42205 9818 ft 170 kts
2026-05-04 23:25 6.01345 -75.42217 9648 ft 176 kts
2026-05-04 23:25 6.02509 -75.42251 9423 ft 165 kts
2026-05-04 23:26 6.03667 -75.42235 9221 ft 167 kts
2026-05-04 23:26 6.04824 -75.42202 9000 ft 170 kts
2026-05-04 23:26 6.05994 -75.42216 8743 ft 166 kts
2026-05-04 23:26 6.07152 -75.42254 8538 ft 168 kts
2026-05-04 23:27 6.08315 -75.42255 8301 ft 163 kts
2026-05-04 23:27 6.09458 -75.42255 8101 ft 167 kts
2026-05-04 23:27 6.10625 -75.42276 7933 ft 166 kts
2026-05-04 23:27 6.11753 -75.42281 7673 ft 168 kts
2026-05-04 23:28 6.12915 -75.42274 7445 ft 165 kts
2026-05-04 23:28 6.14055 -75.42299 7202 ft 160 kts
2026-05-04 23:28 6.15166 -75.42303 6984 ft 156 kts 360°
2026-05-04 23:28 6.16097 -75.42307 6981 ft 102 kts 359°
2026-05-04 23:29 6.16613 -75.42311 6994 ft 48 kts 359°
2026-05-04 23:29 6.16847 -75.42314 7004 ft 25 kts 356°
2026-05-04 23:29 6.17000 -75.42354 7014 ft 21 kts 337°
2026-05-04 23:29 6.17121 -75.42420 7017 ft 19 kts 327°
2026-05-04 23:30 6.17179 -75.42468 7016 ft 9 kts 297°
2026-05-04 23:30 6.17185 -75.42536 7019 ft 11 kts 269°
2026-05-04 23:30 6.17201 -75.42596 7021 ft 6 kts 313°
2026-05-04 23:30 6.17234 -75.42613 7024 ft 6 kts 336°
2026-05-04 23:31 6.17269 -75.42645 7022 ft 7 kts 276°
2026-05-04 23:31 6.17266 -75.42680 7020 ft 3 kts 282°
2026-05-04 23:31 6.17269 -75.42702 7023 ft 4 kts 260°
2026-05-04 23:31 6.17253 -75.42726 7021 ft 5 kts 230°
2026-05-04 23:32 6.17252 -75.42728 7021 ft 0 kts 230°